Precipitable_Water
0.24 0.25 0.26 0.26 0.25 0.26 0.27 0.28 0.33 0.37 0.57 1.03 1.29 1.38 1.44 1.55 1.66 1.61 1.56 1.62 1.55 1.40 1.40 1.58 1.53 1.37 1.11 1.04 1.07 1.08 1.11 1.07 1.07 1.08 1.04 1.02 0.98 0.94 0.90 0.83 0.76 0.70 0.62
0.27 0.27 0.27 0.27 0.27 0.28 0.28 0.29 0.30 0.33 0.43 0.76 1.17 1.24 1.37 1.49 1.60 1.64 1.57 1.62 1.67 1.52 1.39 1.60 1.59 1.44 1.19 1.08 1.09 1.09 1.10 1.04 1.05 1.07 1.03 1.03 0.98 0.94 0.90 0.85 0.77 0.71 0.63
0.27 0.28 0.27 0.27 0.28 0.29 0.29 0.29 0.30 0.31 0.35 0.47 0.85 1.22 1.35 1.46 1.49 1.71 1.64 1.57 1.64 1.64 1.46 1.55 1.66 1.50 1.31 1.11 1.13 1.15 1.10 1.02 1.04 1.06 1.01 1.03 0.99 0.94 0.89 0.84 0.77 0.72 0.64
0.28 0.26 0.26 0.27 0.30 0.30 0.30 0.29 0.28 0.28 0.29 0.38 0.58 1.00 1.22 1.36 1.45 1.54 1.66 1.63 1.64 1.65 1.56 1.53 1.66 1.59 1.38 1.17 1.14 1.17 1.13 1.02 1.03 1.08 1.03 1.04 0.99 0.96 0.90 0.80 0.75 0.73 0.66
0.28 0.27 0.26 0.28 0.30 0.30 0.30 0.29 0.28 0.30 0.28 0.32 0.42 0.72 1.10 1.23 1.35 1.52 1.61 1.60 1.64 1.64 1.71 1.56 1.65 1.68 1.47 1.25 1.17 1.16 1.14 1.04 1.04 1.11 1.06 1.04 1.00 0.97 0.92 0.83 0.76 0.74 0.68
0.29 0.29 0.28 0.30 0.31 0.30 0.30 0.29 0.28 0.30 0.29 0.32 0.37 0.55 0.87 1.16 1.29 1.44 1.60 1.59 1.59 1.73 1.68 1.70 1.63 1.74 1.56 1.36 1.23 1.18 1.15 1.09 1.07 1.12 1.09 1.06 1.02 0.98 0.96 0.88 0.78 0.76 0.70
0.30 0.30 0.30 0.32 0.34 0.32 0.31 0.29 0.28 0.26 0.28 0.35 0.34 0.43 0.75 0.95 1.21 1.29 1.49 1.56 1.54 1.58 1.65 1.66 1.75 1.72 1.64 1.46 1.31 1.24 1.16 1.11 1.08 1.12 1.12 1.07 1.04 1.00 0.99 0.91 0.83 0.76 0.72
0.31 0.32 0.33 0.33 0.35 0.34 0.32 0.31 0.26 0.25 0.32 0.38 0.33 0.41 0.51 0.87 1.14 1.25 1.28 1.50 1.49 1.56 1.61 1.64 1.64 1.65 1.66 1.60 1.37 1.31 1.22 1.13 1.09 1.10 1.16 1.08 1.06 1.02 1.00 0.94 0.87 0.78 0.72
0.32 0.34 0.34 0.35 0.34 0.34 0.33 0.29 0.26 0.28 0.28 0.37 0.43 0.41 0.48 0.66 0.84 1.19 1.25 1.40 1.43 1.44 1.52 1.60 1.67 1.65 1.66 1.65 1.51 1.37 1.28 1.16 1.10 1.09 1.16 1.10 1.07 1.04 1.01 0.96 0.89 0.81 0.72
0.33 0.35 0.36 0.34 0.34 0.34 0.32 0.29 0.29 0.30 0.32 0.32 0.42 0.50 0.58 0.67 0.72 0.83 1.17 1.24 1.36 1.37 1.45 1.52 1.57 1.64 1.62 1.59 1.61 1.47 1.32 1.17 1.10 1.10 1.16 1.14 1.07 1.05 1.02 0.98 0.91 0.83 0.76
0.33 0.35 0.36 0.35 0.34 0.34 0.34 0.30 0.29 0.30 0.34 0.34 0.38 0.45 0.57 0.67 0.78 0.85 0.88 1.04 1.24 1.37 1.44 1.50 1.62 1.57 1.61 1.60 1.64 1.53 1.36 1.21 1.10 1.10 1.14 1.17 1.09 1.05 1.02 0.99 0.92 0.85 0.77
0.31 0.35 0.36 0.36 0.35 0.34 0.34 0.31 0.31 0.32 0.34 0.36 0.39 0.44 0.55 0.55 0.65 0.76 0.83 0.92 1.00 1.21 1.35 1.48 1.54 1.57 1.54 1.64 1.67 1.56 1.39 1.29 1.13 1.09 1.13 1.17 1.13 1.07 1.03 1.00 0.95 0.87 0.78
0.29 0.33 0.35 0.34 0.35 0.35 0.32 0.32 0.31 0.32 0.34 0.35 0.38 0.42 0.54 0.62 0.67 0.73 0.85 0.89 0.95 1.10 1.25 1.41 1.50 1.56 1.59 1.60 1.52 1.47 1.48 1.37 1.21 1.10 1.11 1.17 1.15 1.10 1.05 1.01 0.98 0.90 0.82
0.30 0.34 0.34 0.34 0.35 0.34 0.32 0.32 0.31 0.32 0.35 0.36 0.38 0.41 0.48 0.62 0.67 0.73 0.82 0.87 0.88 1.00 1.09 1.27 1.49 1.53 1.59 1.54 1.49 1.53 1.44 1.39 1.26 1.15 1.10 1.16 1.16 1.12 1.07 1.03 1.00 0.94 0.87
0.30 0.33 0.34 0.33 0.35 0.34 0.32 0.32 0.31 0.32 0.34 0.36 0.38 0.39 0.44 0.59 0.66 0.73 0.81 0.87 0.85 0.85 0.94 1.13 1.25 1.50 1.53 1.53 1.51 1.44 1.45 1.40 1.31 1.21 1.13 1.18 1.18 1.14 1.09 1.06 1.02 0.98 0.92
0.30 0.32 0.33 0.34 0.34 0.33 0.33 0.33 0.32 0.33 0.33 0.35 0.38 0.39 0.41 0.48 0.63 0.73 0.78 0.85 0.91 0.88 0.87 1.06 1.17 1.30 1.48 1.53 1.57 1.50 1.49 1.37 1.32 1.30 1.21 1.23 1.22 1.19 1.13 1.10 1.05 1.01 0.97
0.30 0.31 0.32 0.34 0.32 0.33 0.34 0.33 0.32 0.33 0.33 0.34 0.37 0.38 0.39 0.44 0.51 0.64 0.73 0.81 0.85 0.88 0.86 0.98 1.10 1.22 1.32 1.50 1.47 1.56 1.55 1.46 1.36 1.37 1.26 1.24 1.27 1.21 1.17 1.14 1.10 1.05 1.00
0.30 0.30 0.32 0.32 0.33 0.34 0.34 0.33 0.31 0.32 0.32 0.32 0.36 0.37 0.38 0.42 0.45 0.57 0.68 0.71 0.77 0.87 0.87 0.90 1.01 1.14 1.30 1.52 1.45 1.47 1.44 1.49 1.33 1.44 1.37 1.31 1.32 1.30 1.20 1.17 1.16 1.11 1.04
0.28 0.30 0.31 0.31 0.32 0.33 0.34 0.33 0.33 0.32 0.32 0.34 0.36 0.37 0.38 0.40 0.43 0.50 0.60 0.65 0.71 0.82 0.89 0.91 0.94 1.09 1.21 1.39 1.45 1.42 1.37 1.30 1.49 1.60 1.50 1.42 1.36 1.34 1.28 1.22 1.17 1.15 1.11
0.27 0.28 0.30 0.31 0.32 0.34 0.34 0.33 0.32 0.32 0.32 0.33 0.35 0.37 0.38 0.40 0.42 0.45 0.52 0.57 0.65 0.73 0.85 0.90 0.95 1.01 1.09 1.20 1.35 1.36 1.34 1.43 1.39 1.52 1.53 1.49 1.41 1.37 1.34 1.28 1.23 1.18 1.15
0.26 0.28 0.29 0.31 0.32 0.33 0.33 0.33 0.33 0.32 0.32 0.33 0.35 0.37 0.39 0.41 0.44 0.46 0.49 0.54 0.60 0.67 0.70 0.82 0.85 0.93 1.02 1.09 1.15 1.29 1.29 1.32 1.41 1.46 1.42 1.46 1.45 1.37 1.34 1.32 1.29 1.24 1.19
0.25 0.26 0.27 0.29 0.30 0.32 0.33 0.33 0.33 0.32 0.33 0.33 0.33 0.37 0.39 0.41 0.42 0.45 0.50 0.54 0.59 0.60 0.60 0.66 0.73 0.78 0.95 1.03 1.13 1.20 1.22 1.21 1.19 1.47 1.40 1.35 1.48 1.39 1.36 1.32 1.29 1.23 1.17
0.22 0.24 0.25 0.27 0.28 0.31 0.33 0.33 0.32 0.33 0.33 0.33 0.35 0.37 0.38 0.40 0.41 0.44 0.48 0.51 0.54 0.60 0.61 0.63 0.69 0.75 0.86 0.99 1.02 1.10 1.19 1.16 1.16 1.32 1.36 1.25 1.41 1.42 1.46 1.41 1.34 1.29 1.23
0.19 0.20 0.22 0.25 0.27 0.28 0.31 0.32 0.32 0.32 0.34 0.35 0.37 0.38 0.38 0.38 0.40 0.43 0.45 0.48 0.51 0.56 0.59 0.63 0.72 0.75 0.83 0.94 1.00 1.07 1.12 1.19 1.24 1.28 1.34 1.17 1.33 1.33 1.46 1.46 1.41 1.33 1.30
0.16 0.18 0.19 0.21 0.24 0.27 0.29 0.30 0.30 0.30 0.31 0.32 0.34 0.38 0.39 0.39 0.40 0.42 0.43 0.44 0.47 0.53 0.59 0.62 0.64 0.76 0.84 0.90 1.02 1.05 1.04 1.06 1.06 1.13 1.30 1.22 1.24 1.24 1.35 1.40 1.45 1.44 1.33
0.16 0.17 0.17 0.18 0.20 0.23 0.27 0.29 0.29 0.28 0.28 0.30 0.32 0.35 0.38 0.38 0.39 0.41 0.42 0.42 0.43 0.48 0.53 0.57 0.58 0.64 0.79 0.82 0.94 0.99 0.99 0.99 1.06 1.05 1.20 1.17 1.20 1.22 1.14 1.36 1.45 1.44 1.42
Wind_Speed
39 38 37 36 36 35 34 35 37 39 40 43 41 43 40 39 39 38 37 37 37 38 38 37 36 35 34 33 32 30 29 28 27 26 25 23 21 19 18 17 16 16 16
41 41 40 39 37 36 35 34 35 37 38 41 43 44 41 42 36 41 40 39 38 39 40 39 39 37 36 35 33 32 30 29 28 27 26 24 22 20 19 18 17 17 17
44 43 42 42 40 37 35 34 33 35 37 39 45 42 41 42 44 39 42 41 41 41 42 41 41 39 37 36 35 33 32 30 29 27 26 25 23 22 20 19 18 18 18
46 46 45 43 39 35 33 32 32 32 35 37 40 48 48 46 43 41 43 43 43 43 44 43 43 42 40 38 37 35 33 32 30 28 27 25 25 23 22 20 20 19 19
49 49 42 36 32 29 28 29 29 30 32 35 38 43 46 50 46 43 45 44 44 45 45 45 44 43 41 40 38 36 35 33 31 30 28 27 26 24 23 22 21 20 19
50 43 35 29 24 22 23 24 26 27 29 32 36 39 45 50 50 44 43 45 45 44 46 46 45 45 43 41 40 38 36 35 33 31 29 28 27 25 25 23 22 21 20
47 38 32 26 20 18 18 19 21 23 25 27 31 36 42 50 54 50 41 45 45 44 45 45 47 46 45 43 41 40 37 36 34 33 30 29 28 27 26 25 23 23 21
42 34 30 24 18 14 14 14 16 18 20 21 26 31 36 39 50 49 45 47 47 44 44 45 45 45 47 46 43 41 39 38 36 34 32 31 29 29 28 26 25 24 23
38 33 28 23 16 12 10 11 13 14 17 19 21 25 32 35 39 48 46 43 48 47 46 48 46 47 45 45 44 43 41 40 38 36 34 33 31 31 29 28 26 25 24
36 31 27 22 16 10 8 9 10 12 14 16 20 24 30 34 34 38 39 48 40 51 47 48 50 48 48 47 47 45 43 42 40 38 35 34 32 32 31 29 27 26 26
34 30 26 21 15 10 8 8 8 9 11 13 16 21 26 32 33 34 38 36 44 47 47 49 44 51 46 49 50 48 46 44 42 40 37 36 34 34 32 31 29 28 27
32 28 25 21 15 11 8 7 6 7 9 11 14 18 25 31 32 32 33 34 35 41 53 46 46 49 47 47 50 50 48 45 44 42 39 37 36 35 34 33 30 29 28
30 27 25 20 15 12 9 7 5 5 6 9 11 15 23 27 30 33 34 31 31 34 42 49 47 48 48 49 49 49 50 48 46 44 41 39 37 37 36 34 32 30 29
29 25 23 21 16 13 10 7 4 4 5 7 9 13 19 25 29 30 31 30 29 33 36 42 32 49 46 48 50 50 51 51 48 47 44 41 39 38 37 36 34 32 30
29 24 22 21 17 14 10 6 3 3 4 6 7 10 15 21 27 31 31 30 28 32 34 35 32 41 45 45 47 49 51 52 51 49 46 44 41 40 39 38 36 35 33
28 23 22 20 17 14 11 7 4 3 3 4 6 7 12 18 23 28 32 32 31 31 33 31 33 29 38 44 44 48 52 51 52 50 48 46 44 42 40 39 38 37 35
28 22 21 19 18 15 12 8 4 3 2 2 4 7 9 14 22 25 29 32 33 32 32 31 32 32 33 39 44 46 50 51 51 50 50 48 46 44 43 41 40 39 38
28 23 21 19 18 16 13 9 5 3 2 2 3 5 8 11 17 22 27 30 33 32 31 31 30 32 32 33 39 43 46 47 52 48 50 49 48 46 45 44 42 41 40
29 23 21 20 19 17 15 10 7 4 2 2 3 5 6 9 13 18 23 28 31 34 31 32 31 31 34 28 33 40 42 47 49 49 48 49 49 48 47 46 45 43 42
30 24 21 20 19 18 16 12 8 5 3 2 3 4 6 8 11 16 21 25 28 32 33 33 32 30 32 32 32 35 39 43 43 46 43 46 48 49 48 47 47 46 45
31 25 21 20 20 19 18 14 10 7 5 3 2 3 5 7 9 13 18 22 25 31 31 34 33 32 33 31 33 30 36 43 45 43 43 42 44 47 49 49 49 48 47
33 27 22 20 20 20 20 16 12 9 7 5 4 3 4 6 9 12 14 19 23 27 31 34 33 33 36 31 31 34 34 32 34 43 44 45 44 45 47 49 50 50 49
35 30 24 21 20 20 21 18 14 11 8 7 6 4 3 5 7 11 14 16 20 24 29 33 33 33 34 33 34 34 38 34 35 36 45 46 46 45 47 48 50 51 51
36 32 27 22 20 20 21 20 16 12 10 9 8 6 4 3 5 9 13 16 17 20 25 31 34 34 34 34 34 36 38 36 35 37 39 43 45 45 47 49 50 50 51
36 33 30 24 21 20 22 21 17 15 12 10 9 8 6 3 3 5 11 14 17 18 21 25 31 34 32 34 35 34 36 37 37 36 38 39 43 44 46 48 50 50 50
37 34 32 28 23 20 21 21 19 16 14 12 10 9 9 6 4 3 7 11 14 17 18 22 27 33 33 33 33 33 34 37 35 36 37 39 40 37 41 46 50 50 50
Wind_Direction
318 313 307 300 292 284 275 268 259 254 250 242 239 231 227 222 219 215 214 211 207 205 202 200 197 195 194 193 191 191 190 189 189 188 188 188 186 183 180 178 175 173 171
319 314 308 301 293 284 274 268 260 254 249 240 233 231 226 221 219 217 214 212 209 206 203 202 198 196 195 194 193 193 192 191 190 190 190 191 189 187 184 181 180 177 175
320 315 309 302 292 283 272 265 260 253 248 242 233 227 220 221 222 218 214 213 211 208 205 203 200 198 197 195 195 195 194 193 192 191 191 192 192 189 187 185 184 181 179
323 317 309 300 291 280 269 261 258 254 247 241 234 228 227 223 220 219 214 213 211 209 207 204 202 199 198 197 196 196 196 195 194 194 193 193 191 190 189 188 187 185 183
328 322 314 303 290 278 266 258 255 252 248 241 237 231 224 221 217 218 215 213 211 209 208 207 203 200 199 198 198 197 197 197 197 196 195 194 193 192 191 190 188 187 187
332 328 323 313 296 279 266 258 253 251 248 242 238 231 224 217 217 216 214 212 211 211 208 207 206 202 200 199 199 198 198 199 198 198 198 196 195 195 193 191 190 190 190
336 334 330 322 306 283 270 260 252 253 247 243 234 230 224 220 216 215 218 211 210 210 210 210 209 205 202 200 200 200 200 200 200 200 200 198 198 196 194 194 193 193 193
341 339 336 329 316 292 275 264 257 253 244 240 231 226 219 215 215 214 214 215 212 211 209 206 204 204 201 201 201 201 201 201 201 201 201 200 200 198 197 197 196 196 196
344 343 342 337 327 305 282 272 264 250 242 236 227 219 212 210 213 212 215 214 215 212 210 206 205 202 202 202 203 203 203 203 202 203 203 202 202 200 199 199 199 199 199
346 346 346 343 336 320 297 283 269 246 240 232 224 218 212 210 208 211 211 213 218 213 212 208 208 207 207 208 206 205 204 204 203 203 204 204 204 202 201 201 202 202 201
348 348 348 347 343 333 311 300 276 244 236 230 224 218 212 207 207 209 210 213 216 213 212 210 209 207 208 207 207 206 204 204 204 204 205 205 205 204 202 202 203 203 203
349 351 350 349 345 337 326 311 283 245 236 229 223 217 212 207 209 207 209 212 214 213 211 210 207 207 207 205 203 204 205 205 205 205 206 206 206 204 204 203 204 204 204
351 352 353 352 349 345 332 321 289 254 241 231 225 219 212 208 209 211 209 210 210 207 207 209 212 206 205 204 205 206 207 208 207 207 206 206 206 205 205 205 205 205 205
353 353 355 356 353 350 342 327 293 262 250 232 227 218 211 210 208 206 206 206 209 202 201 203 204 203 204 207 209 211 210 209 209 207 207 206 206 206 206 206 206 206 207
355 356 358 360 359 355 352 343 313 278 259 235 224 219 212 209 208 207 204 206 205 202 203 199 203 205 207 209 209 210 211 209 208 207 208 208 208 208 208 208 208 209 209
359 0 1 3 4 3 359 352 333 302 271 233 222 217 212 209 208 207 208 208 207 203 205 205 205 208 210 211 209 212 210 210 208 208 209 209 209 210 210 210 211 211 211
3 4 5 6 8 7 6 2 352 331 292 246 224 218 213 210 210 210 210 208 207 206 209 209 211 213 212 207 211 211 208 208 208 210 211 210 211 212 212 213 213 213 214
7 8 10 11 11 11 10 9 7 0 330 278 241 226 217 214 212 212 209 209 208 209 209 210 210 210 207 208 204 206 204 206 207 210 211 212 212 213 214 215 215 216 216
10 12 14 15 15 14 13 12 10 359 336 297 264 248 230 219 214 211 207 209 209 208 209 208 209 208 207 207 202 210 205 208 208 211 213 213 214 215 216 217 217 218 218
13 15 17 17 17 17 16 16 15 13 3 320 280 249 237 224 220 214 212 211 211 211 211 209 210 209 208 209 207 207 209 209 208 209 211 213 216 217 218 219 219 220 220
16 17 19 19 20 20 19 20 21 19 12 1 326 271 245 232 224 217 213 212 212 209 211 210 211 213 212 214 211 210 212 215 216 213 214 214 216 219 221 221 222 222 222
18 19 20 21 21 21 20 21 23 23 18 6 347 316 262 241 230 222 215 210 209 210 209 211 213 214 211 215 215 214 210 210 212 214 216 217 221 221 222 223 224 224 224
19 20 21 22 23 22 21 22 23 24 23 18 5 342 299 253 238 224 217 212 210 213 213 213 214 214 215 217 218 217 215 217 218 218 218 222 224 226 226 225 225 225 225
20 21 22 22 23 23 22 23 24 25 24 23 16 6 351 291 254 230 220 216 214 213 215 214 215 216 217 219 218 218 220 221 221 222 221 223 224 229 228 228 227 227 226
21 22 23 23 23 23 23 24 25 26 25 23 20 17 8 349 291 247 224 220 218 214 216 214 214 214 216 218 219 221 219 223 224 224 224 226 226 230 229 229 228 228 228
23 24 24 25 23 22 23 24 26 27 28 26 23 23 21 19 353 277 229 225 222 222 220 217 216 216 219 221 220 221 223 224 224 224 225 226 225 226 231 232 229 229 230